• Em Portugal
  • Lista de países
  • Para 7 dias
  • Temperatura da água
  • Mapas de satélite
  • Mapa do tempo
  • Widgets de tempo
  • user-avatar
    Iniciar Sessão

    Previsão horária em Sherpur

    Hoje, 22 Janeiro, Segunda-feira

    Tempo Temperatura Precipitação Vento Pressão Humidade
    00:00 +2°C° 0 mm 2 m/s 605 mmHg 14%
    01:00 +2°C° 0 mm 2 m/s 605 mmHg 14%
    02:00 +1°C° 0 mm 2 m/s 604 mmHg 15%
    03:00 +1°C° 0 mm 2 m/s 604 mmHg 15%
    04:00 +1°C° 0 mm 2 m/s 604 mmHg 16%
    05:00 -1°C° 0 mm 2 m/s 604 mmHg 16%
    06:00 -1°C° 0 mm 2 m/s 604 mmHg 17%
    07:00 -1°C° 0 mm 2 m/s 604 mmHg 17%
    08:00 -1°C° 0 mm 3 m/s 604 mmHg 17%
    09:00 +1°C° 0 mm 3 m/s 605 mmHg 16%
    10:00 +3°C° 0 mm 3 m/s 605 mmHg 15%
    11:00 +5°C° 0 mm 3 m/s 605 mmHg 14%
    12:00 +5°C° 0 mm 3 m/s 605 mmHg 14%
    13:00 +7°C° 0 mm 3 m/s 605 mmHg 13%
    14:00 +8°C° 0 mm 3 m/s 605 mmHg 13%
    15:00 +7°C° 0 mm 3 m/s 604 mmHg 14%
    16:00 +7°C° 0 mm 3 m/s 604 mmHg 14%
    17:00 +5°C° 0 mm 2 m/s 604 mmHg 14%
    18:00 +5°C° 0 mm 2 m/s 604 mmHg 13%
    19:00 +4°C° 0 mm 2 m/s 604 mmHg 13%
    20:00 +3°C° 0 mm 2 m/s 605 mmHg 13%
    21:00 +2°C° 0 mm 2 m/s 605 mmHg 13%
    22:00 +2°C° 0 mm 2 m/s 604 mmHg 13%
    23:00 +1°C° 0 mm 2 m/s 604 mmHg 14%

    Amanhã, 23 Janeiro, Terça-feira

    Tempo Temperatura Precipitação Vento Pressão Humidade
    00:00 +1°C° 0 mm 2 m/s 604 mmHg 15%
    01:00 +1°C° 0 mm 2 m/s 604 mmHg 16%
    02:00 +1°C° 0 mm 2 m/s 604 mmHg 17%
    03:00 -1°C° 0 mm 2 m/s 604 mmHg 19%
    04:00 -1°C° 0 mm 2 m/s 604 mmHg 20%
    05:00 -1°C° 0 mm 2 m/s 604 mmHg 22%
    06:00 -1°C° 0 mm 2 m/s 604 mmHg 23%
    07:00 -1°C° 0 mm 2 m/s 605 mmHg 24%
    08:00 -1°C° 0 mm 2 m/s 605 mmHg 25%
    09:00 +2°C° 0 mm 1 m/s 605 mmHg 23%
    10:00 +4°C° 0 mm 1 m/s 605 mmHg 21%
    11:00 +6°C° 0 mm 1 m/s 606 mmHg 20%
    12:00 +7°C° 0 mm 1 m/s 605 mmHg 19%
    13:00 +7°C° 0 mm 1 m/s 605 mmHg 18%
    14:00 +8°C° 0 mm 1 m/s 605 mmHg 18%
    15:00 +8°C° 0 mm 1 m/s 605 mmHg 19%
    16:00 +8°C° 0 mm 1 m/s 604 mmHg 20%
    17:00 +8°C° 0 mm 1 m/s 604 mmHg 22%
    18:00 +5°C° 0 mm 2 m/s 604 mmHg 23%
    19:00 +4°C° 0 mm 2 m/s 605 mmHg 24%
    20:00 +3°C° 0 mm 2 m/s 605 mmHg 25%
    21:00 +3°C° 0 mm 2 m/s 605 mmHg 24%
    22:00 +2°C° 0 mm 2 m/s 604 mmHg 24%
    23:00 +2°C° 0 mm 2 m/s 604 mmHg 24%

    Depois de amanhã, 24 Janeiro, Quarta-feira

    Tempo Temperatura Precipitação Vento Pressão Humidade
    00:00 +2°C° 0 mm 2 m/s 604 mmHg 23%
    01:00 +2°C° 0 mm 2 m/s 604 mmHg 23%
    02:00 +1°C° 0 mm 2 m/s 604 mmHg 22%
    03:00 +1°C° 0 mm 2 m/s 603 mmHg 22%
    04:00 +1°C° 0 mm 2 m/s 603 mmHg 22%
    05:00 +1°C° 0 mm 2 m/s 603 mmHg 22%
    06:00 +1°C° 0 mm 2 m/s 603 mmHg 21%
    07:00 +1°C° 0 mm 2 m/s 603 mmHg 20%
    08:00 +1°C° 0 mm 2 m/s 604 mmHg 20%
    09:00 +3°C° 0 mm 2 m/s 604 mmHg 18%
    10:00 +6°C° 0 mm 1 m/s 605 mmHg 15%
    11:00 +8°C° 0 mm 1 m/s 606 mmHg 13%
    12:00 +9°C° 0 mm 1 m/s 605 mmHg 13%
    13:00 +9°C° 0 mm 1 m/s 605 mmHg 13%
    14:00 +10°C° 0 mm 1 m/s 605 mmHg 13%
    15:00 +9°C° 0 mm 1 m/s 605 mmHg 15%
    16:00 +9°C° 0 mm 1 m/s 605 mmHg 17%
    17:00 +9°C° 0 mm 1 m/s 605 mmHg 19%
    18:00 +7°C° 0 mm 1 m/s 605 mmHg 20%
    19:00 +6°C° 0 mm 1 m/s 605 mmHg 22%
    20:00 +4°C° 0 mm 1 m/s 605 mmHg 23%
    21:00 +4°C° 0 mm 1 m/s 605 mmHg 24%
    22:00 +3°C° 0 mm 1 m/s 605 mmHg 25%
    23:00 +3°C° 0 mm 1 m/s 605 mmHg 26%

    25 Janeiro, Quinta-feira

    Tempo Temperatura Precipitação Vento Pressão Humidade
    00:00 +2°C° 0 mm 1 m/s 605 mmHg 26%
    01:00 +2°C° 0 mm 1 m/s 604 mmHg 27%
    02:00 +2°C° 0 mm 1 m/s 604 mmHg 27%
    03:00 +2°C° 0 mm 1 m/s 604 mmHg 28%
    04:00 +2°C° 0 mm 1 m/s 604 mmHg 28%
    05:00 -1°C° 0 mm 2 m/s 604 mmHg 29%
    06:00 +1°C° 0 mm 2 m/s 605 mmHg 29%
    07:00 +1°C° 0 mm 2 m/s 605 mmHg 29%
    08:00 +1°C° 0 mm 2 m/s 606 mmHg 29%
    09:00 +3°C° 0 mm 2 m/s 606 mmHg 27%
    10:00 +5°C° 0 mm 2 m/s 607 mmHg 24%
    11:00 +6°C° 0 mm 2 m/s 607 mmHg 22%
    12:00 +7°C° 0 mm 2 m/s 607 mmHg 21%
    13:00 +8°C° 0 mm 3 m/s 607 mmHg 21%
    14:00 +8°C° 0 mm 3 m/s 606 mmHg 21%
    15:00 +8°C° 0 mm 3 m/s 606 mmHg 22%
    16:00 +7°C° 0 mm 3 m/s 606 mmHg 24%
    17:00 +7°C° 0 mm 3 m/s 606 mmHg 26%
    18:00 +5°C° 0 mm 3 m/s 607 mmHg 28%
    19:00 +3°C° 0 mm 3 m/s 607 mmHg 31%
    20:00 +2°C° 0 mm 3 m/s 607 mmHg 34%
    21:00 +2°C° 0 mm 3 m/s 607 mmHg 35%
    22:00 +1°C° 0 mm 3 m/s 607 mmHg 36%
    23:00 +1°C° 0 mm 3 m/s 607 mmHg 37%

    26 Janeiro, Sexta-feira

    Tempo Temperatura Precipitação Vento Pressão Humidade
    00:00 0°C° 0 mm 3 m/s 607 mmHg 37%
    01:00 0°C° 0 mm 3 m/s 607 mmHg 38%
    02:00 0°C° 0 mm 3 m/s 607 mmHg 38%
    03:00 0°C° 0 mm 3 m/s 607 mmHg 38%
    04:00 -1°C° 0 mm 3 m/s 607 mmHg 38%
    05:00 -1°C° 0 mm 3 m/s 607 mmHg 38%
    06:00 -1°C° 0 mm 3 m/s 607 mmHg 38%
    07:00 -1°C° 0 mm 3 m/s 607 mmHg 38%
    08:00 -1°C° 0 mm 3 m/s 608 mmHg 37%
    09:00 +1°C° 0 mm 3 m/s 608 mmHg 33%
    10:00 +3°C° 0 mm 3 m/s 608 mmHg 29%
    11:00 +5°C° 0 mm 2 m/s 608 mmHg 25%
    12:00 +5°C° 0 mm 3 m/s 608 mmHg 23%
    13:00 +7°C° 0 mm 3 m/s 608 mmHg 21%
    14:00 +8°C° 0 mm 3 m/s 607 mmHg 20%
    15:00 +7°C° 0 mm 3 m/s 607 mmHg 20%
    16:00 +7°C° 0 mm 3 m/s 607 mmHg 21%
    17:00 +7°C° 0 mm 3 m/s 607 mmHg 22%
    18:00 +5°C° 0 mm 3 m/s 607 mmHg 24%
    19:00 +3°C° 0 mm 3 m/s 607 mmHg 26%
    20:00 +2°C° 0 mm 3 m/s 607 mmHg 28%
    21:00 +2°C° 0 mm 3 m/s 607 mmHg 29%
    22:00 +1°C° 0 mm 3 m/s 607 mmHg 29%
    23:00 +1°C° 0 mm 3 m/s 607 mmHg 30%

    27 Janeiro, Sábado

    Tempo Temperatura Precipitação Vento Pressão Humidade
    00:00 +1°C° 0 mm 3 m/s 607 mmHg 30%
    01:00 0°C° 0 mm 3 m/s 606 mmHg 31%
    02:00 0°C° 0 mm 3 m/s 606 mmHg 31%
    03:00 0°C° 0 mm 3 m/s 606 mmHg 31%
    04:00 0°C° 0 mm 3 m/s 606 mmHg 32%
    05:00 -1°C° 0 mm 3 m/s 606 mmHg 32%
    06:00 -1°C° 0 mm 3 m/s 606 mmHg 32%
    07:00 -1°C° 0 mm 3 m/s 606 mmHg 31%
    08:00 -1°C° 0 mm 3 m/s 606 mmHg 31%
    09:00 +1°C° 0 mm 3 m/s 607 mmHg 27%
    10:00 +4°C° 0 mm 2 m/s 607 mmHg 24%
    11:00 +6°C° 0 mm 2 m/s 607 mmHg 21%
    12:00 +7°C° 0 mm 2 m/s 607 mmHg 19%
    13:00 +8°C° 0 mm 2 m/s 606 mmHg 18%
    14:00 +8°C° 0 mm 2 m/s 606 mmHg 17%
    15:00 +8°C° 0 mm 2 m/s 606 mmHg 18%
    16:00 +8°C° 0 mm 2 m/s 606 mmHg 19%
    17:00 +8°C° 0 mm 2 m/s 606 mmHg 20%
    18:00 +6°C° 0 mm 2 m/s 606 mmHg 22%
    19:00 +5°C° 0 mm 2 m/s 606 mmHg 24%
    20:00 +4°C° 0 mm 2 m/s 606 mmHg 26%
    21:00 +3°C° 0 mm 2 m/s 606 mmHg 27%
    22:00 +3°C° 0 mm 2 m/s 606 mmHg 28%
    23:00 +2°C° 0 mm 2 m/s 606 mmHg 29%
    Mostrar mais